�������l�o���
Date,Time,MP-1(��Sv/h),MP-2(��Sv/h),MP-3(��Sv/h),MP-4(��Sv/h),MP-5(��Sv/h),MP-6(��Sv/h),MP-7(��Sv/h),MP-8(��Sv/h),����,����(m/s),���J
2024/02/05,00:00,0.515,0.783,0.486,0.984,0.701,0.313,0.559,0.523,��,5.9,��
2024/02/05,00:10,0.516,0.783,0.488,0.988,0.702,0.313,0.558,0.523,��,6.2,��
2024/02/05,00:20,0.515,0.782,0.487,0.985,0.702,0.314,0.558,0.524,���k��,4.9,��
2024/02/05,00:30,0.514,0.780,0.486,0.987,0.701,0.313,0.559,0.522,���k��,4.3,��
2024/02/05,00:40,0.515,0.782,0.487,0.986,0.701,0.315,0.559,0.522,���k��,4.9,��
2024/02/05,00:50,0.515,0.783,0.487,0.986,0.702,0.312,0.558,0.522,���k��,4.9,��
2024/02/05,01:00,0.515,0.784,0.488,0.988,0.700,0.313,0.559,0.523,���k��,4.2,��
2024/02/05,01:10,0.516,0.784,0.488,0.986,0.701,0.315,0.558,0.523,���k��,4.2,��
2024/02/05,01:20,0.515,0.783,0.487,0.985,0.702,0.313,0.558,0.522,���k��,5.1,��
2024/02/05,01:30,0.514,0.782,0.487,0.986,0.701,0.314,0.558,0.522,���k��,4.3,��
2024/02/05,01:40,0.516,0.782,0.487,0.987,0.701,0.314,0.559,0.525,���k��,4.5,��
2024/02/05,01:50,0.515,0.785,0.487,0.986,0.701,0.314,0.559,0.524,��,5.0,��
2024/02/05,02:00,0.516,0.785,0.486,0.987,0.701,0.311,0.558,0.523,��,5.7,��
2024/02/05,02:10,0.514,0.784,0.487,0.986,0.701,0.312,0.559,0.524,��,4.9,��
2024/02/05,02:20,0.515,0.784,0.488,0.987,0.702,0.314,0.559,0.524,��,3.2,��
2024/02/05,02:30,0.515,0.782,0.487,0.987,0.702,0.314,0.559,0.524,��,3.5,��
2024/02/05,02:40,0.515,0.782,0.486,0.988,0.702,0.313,0.560,0.524,���k��,3.1,��
2024/02/05,02:50,0.515,0.784,0.487,0.988,0.699,0.313,0.558,0.524,���k��,3.1,��
2024/02/05,03:00,0.516,0.782,0.486,0.982,0.702,0.314,0.557,0.523,��,2.2,��
2024/02/05,03:10,0.516,0.785,0.487,0.985,0.700,0.313,0.558,0.524,���k��,2.3,��
2024/02/05,03:20,0.516,0.783,0.486,0.986,0.700,0.313,0.558,0.523,��,3.1,��
2024/02/05,03:30,0.514,0.783,0.486,0.985,0.700,0.312,0.558,0.525,��,4.4,��
2024/02/05,03:40,0.516,0.782,0.488,0.987,0.700,0.312,0.559,0.523,��,4.8,��
2024/02/05,03:50,0.514,0.784,0.486,0.984,0.702,0.313,0.557,0.523,��,4.0,��
2024/02/05,04:00,0.516,0.783,0.486,0.986,0.700,0.314,0.559,0.524,��,4.7,��
2024/02/05,04:10,0.514,0.781,0.489,0.986,0.701,0.313,0.557,0.523,��,4.1,��
2024/02/05,04:20,0.517,0.780,0.487,0.987,0.701,0.313,0.557,0.523,��,3.7,��
2024/02/05,04:30,0.515,0.782,0.487,0.988,0.702,0.313,0.559,0.523,���쐼,3.3,��
2024/02/05,04:40,0.514,0.784,0.487,0.985,0.700,0.312,0.558,0.524,��,5.4,��
2024/02/05,04:50,0.515,0.783,0.488,0.987,0.701,0.313,0.558,0.522,��,5.5,��
2024/02/05,05:00,0.515,0.782,0.486,0.988,0.699,0.315,0.559,0.523,��,4.8,��
2024/02/05,05:10,0.514,0.783,0.489,0.986,0.700,0.313,0.558,0.524,��,4.8,��
2024/02/05,05:20,0.514,0.783,0.486,0.985,0.700,0.314,0.558,0.523,���k��,3.8,��
2024/02/05,05:30,0.515,0.782,0.486,0.987,0.700,0.314,0.560,0.523,�k��,3.6,��
2024/02/05,05:40,0.517,0.784,0.488,0.988,0.701,0.313,0.561,0.522,�k��,3.7,��
2024/02/05,05:50,0.515,0.782,0.489,0.989,0.701,0.314,0.559,0.523,�k��,5.8,��
2024/02/05,06:00,0.517,0.783,0.488,0.986,0.702,0.313,0.560,0.523,�k��,4.8,��
2024/02/05,06:10,0.515,0.782,0.488,0.986,0.702,0.314,0.560,0.523,���k��,4.9,��
2024/02/05,06:20,0.515,0.780,0.488,0.987,0.699,0.314,0.559,0.523,���k��,5.6,��
2024/02/05,06:30,0.515,0.781,0.489,0.987,0.699,0.313,0.560,0.523,���k��,7.5,��
2024/02/05,06:40,0.516,0.782,0.488,0.988,0.700,0.314,0.560,0.523,�k��,10.2,��
2024/02/05,06:50,0.514,0.784,0.487,0.985,0.701,0.313,0.559,0.525,�k��,10.5,��
2024/02/05,07:00,0.516,0.783,0.487,0.986,0.701,0.312,0.559,0.523,�k��,12.5,��
2024/02/05,07:10,0.515,0.783,0.487,0.987,0.701,0.313,0.561,0.523,�k��,9.0,��
2024/02/05,07:20,0.515,0.781,0.487,0.985,0.703,0.312,0.559,0.524,���k��,4.8,��
2024/02/05,07:30,0.516,0.783,0.486,0.987,0.701,0.312,0.558,0.525,�k��,5.2,��
2024/02/05,07:40,0.516,0.784,0.487,0.986,0.701,0.312,0.560,0.524,�k��,5.5,��
2024/02/05,07:50,0.517,0.783,0.488,0.987,0.701,0.312,0.561,0.524,�k��,4.9,��
2024/02/05,08:00,0.517,0.783,0.489,0.985,0.701,0.313,0.559,0.525,�k�k��,3.4,��
2024/02/05,08:10,0.516,0.782,0.487,0.988,0.701,0.314,0.559,0.525,�k��,4.3,��
2024/02/05,08:20,0.516,0.782,0.489,0.987,0.699,0.315,0.561,0.525,�k��,3.9,��
2024/02/05,08:30,0.517,0.781,0.489,0.988,0.701,0.313,0.560,0.524,�k��,3.1,��
2024/02/05,08:40,0.517,0.783,0.487,0.987,0.702,0.313,0.561,0.524,�k��,3.2,��
2024/02/05,08:50,0.517,0.784,0.488,0.989,0.702,0.313,0.559,0.524,�k��,4.0,��
2024/02/05,09:00,0.516,0.783,0.490,0.990,0.701,0.314,0.560,0.525,�k��,3.5,��
2024/02/05,09:10,0.516,0.781,0.488,0.984,0.700,0.313,0.562,0.524,�k��,2.6,��
2024/02/05,09:20,0.516,0.782,0.486,0.987,0.703,0.313,0.561,0.525,�k��,2.9,��
2024/02/05,09:30,0.517,0.782,0.486,0.988,0.700,0.313,0.562,0.524,�k�k��,3.1,��
2024/02/05,09:40,0.517,0.783,0.488,0.986,0.701,0.313,0.560,0.525,���k��,0.9,��
2024/02/05,09:50,0.517,0.784,0.487,0.986,0.703,0.313,0.560,0.524,�k��,2.6,��
2024/02/05,10:00,0.515,0.783,0.488,0.988,0.698,0.313,0.561,0.524,�k�k��,2.0,��
2024/02/05,10:10,0.516,0.783,0.488,0.988,0.702,0.312,0.559,0.524,�k�k��,2.3,��
2024/02/05,10:20,0.517,0.783,0.489,0.989,0.703,0.313,0.559,0.524,�k�k��,2.6,��
2024/02/05,10:30,0.516,0.784,0.487,0.991,0.702,0.314,0.560,0.524,�k�k��,2.6,��
2024/02/05,10:40,0.517,0.783,0.487,0.986,0.702,0.313,0.560,0.524,�k�k��,2.6,��
2024/02/05,10:50,0.518,0.784,0.487,0.988,0.702,0.314,0.561,0.523,�k�k��,2.6,��
2024/02/05,11:00,0.516,0.782,0.489,0.986,0.700,0.315,0.561,0.525,�k��,4.0,��
2024/02/05,11:10,0.517,0.783,0.488,0.986,0.701,0.314,0.560,0.523,�k�k��,3.9,��
2024/02/05,11:20,0.516,0.784,0.487,0.987,0.703,0.313,0.560,0.523,�k�k��,3.3,��
2024/02/05,11:30,0.517,0.785,0.488,0.986,0.701,0.312,0.562,0.526,�k�k��,3.3,��
2024/02/05,11:40,0.516,0.781,0.488,0.988,0.702,0.312,0.559,0.523,�k�k��,3.9,��
2024/02/05,11:50,0.517,0.783,0.488,0.987,0.703,0.313,0.558,0.524,�k�k��,4.1,��
2024/02/05,12:00,0.517,0.786,0.487,0.987,0.701,0.313,0.559,0.526,�k�k��,3.9,��
2024/02/05,12:10,0.516,0.783,0.487,0.987,0.701,0.313,0.559,0.525,�k,4.8,��
2024/02/05,12:20,0.516,0.783,0.489,0.989,0.702,0.314,0.559,0.525,�k�k��,4.3,��
2024/02/05,12:30,0.516,0.785,0.487,0.987,0.703,0.314,0.560,0.524,�k�k��,4.0,��
2024/02/05,12:40,0.518,0.783,0.488,0.987,0.703,0.313,0.559,0.525,�k�k��,3.9,��
2024/02/05,12:50,0.516,0.784,0.487,0.986,0.703,0.313,0.560,0.524,�k�k��,4.9,��
2024/02/05,13:00,0.517,0.782,0.487,0.989,0.703,0.314,0.561,0.526,�k�k��,4.3,��
2024/02/05,13:10,0.518,0.783,0.487,0.986,0.703,0.314,0.559,0.525,�k�k��,3.8,��
2024/02/05,13:20,0.517,0.785,0.487,0.988,0.703,0.314,0.559,0.525,�k�k��,4.5,��
2024/02/05,13:30,0.518,0.784,0.489,0.990,0.700,0.313,0.561,0.524,�k�k��,4.8,��
2024/02/05,13:40,0.518,0.785,0.486,0.988,0.705,0.314,0.561,0.525,�k�k��,4.6,�L
2024/02/05,13:50,0.518,0.782,0.489,0.988,0.702,0.313,0.562,0.525,�k�k��,5.2,�L
2024/02/05,14:00,0.518,0.784,0.490,0.989,0.704,0.314,0.563,0.524,�k��,4.2,�L
2024/02/05,14:10,0.518,0.785,0.492,0.989,0.704,0.317,0.562,0.525,�k��,4.0,�L
2024/02/05,14:20,0.520,0.786,0.492,0.992,0.705,0.315,0.562,0.526,�k�k��,4.7,�L
2024/02/05,14:30,0.519,0.785,0.492,0.991,0.704,0.316,0.563,0.525,�k�k��,3.2,�L
2024/02/05,14:40,0.520,0.784,0.493,0.990,0.706,0.316,0.562,0.525,�k��,3.5,�L
2024/02/05,14:50,0.521,0.784,0.493,0.988,0.704,0.317,0.559,0.524,�k�k��,5.1,�L
2024/02/05,15:00,0.517,0.782,0.493,0.986,0.703,0.316,0.561,0.525,�k��,5.0,�L
2024/02/05,15:10,0.517,0.780,0.489,0.987,0.701,0.316,0.560,0.525,�k��,5.1,�L
2024/02/05,15:20,0.515,0.777,0.487,0.986,0.698,0.315,0.560,0.524,�k��,6.5,�L
2024/02/05,15:30,0.514,0.775,0.487,0.983,0.696,0.314,0.560,0.524,�k��,6.2,�L
2024/02/05,15:40,0.512,0.775,0.485,0.981,0.695,0.313,0.559,0.524,�k��,5.9,�L
2024/02/05,15:50,0.513,0.772,0.485,0.980,0.696,0.313,0.557,0.523,�k��,5.5,�L
2024/02/05,16:00,0.512,0.770,0.484,0.980,0.694,0.313,0.559,0.523,�k��,6.6,�L
2024/02/05,16:10,0.508,0.766,0.480,0.975,0.688,0.313,0.557,0.521,�k��,6.9,�L
2024/02/05,16:20,0.506,0.764,0.481,0.971,0.686,0.313,0.557,0.521,�k��,5.6,�L
2024/02/05,16:30,0.505,0.760,0.478,0.970,0.684,0.312,0.554,0.521,�k��,6.3,�L
2024/02/05,16:40,0.502,0.757,0.477,0.965,0.680,0.313,0.554,0.519,�k��,7.1,�L
2024/02/05,16:50,0.501,0.754,0.476,0.962,0.678,0.312,0.552,0.517,�k��,6.4,�L
2024/02/05,17:00,0.500,0.750,0.474,0.958,0.675,0.310,0.552,0.518,�k��,6.7,�L
2024/02/05,17:10,0.497,0.746,0.471,0.957,0.671,0.309,0.549,0.516,�k�k��,6.9,�L
2024/02/05,17:20,0.496,0.745,0.472,0.955,0.670,0.309,0.547,0.516,�k�k��,6.3,�L
2024/02/05,17:30,0.492,0.740,0.471,0.954,0.667,0.308,0.547,0.515,�k�k��,5.8,�L
2024/02/05,17:40,0.491,0.736,0.469,0.949,0.663,0.309,0.547,0.513,�k�k��,7.6,�L
2024/02/05,17:50,0.490,0.732,0.465,0.947,0.661,0.307,0.545,0.513,�k��,7.2,�L
2024/02/05,18:00,0.489,0.730,0.465,0.942,0.656,0.306,0.543,0.511,�k�k��,7.0,�L
2024/02/05,18:10,0.485,0.726,0.462,0.941,0.653,0.306,0.540,0.511,�k��,8.7,�L
2024/02/05,18:20,0.484,0.723,0.459,0.936,0.649,0.306,0.537,0.508,�k�k��,7.7,�L
2024/02/05,18:30,0.478,0.715,0.457,0.932,0.644,0.305,0.534,0.506,�k�k��,8.2,�L
2024/02/05,18:40,0.476,0.711,0.456,0.928,0.640,0.305,0.532,0.505,�k�k��,8.6,�L
2024/02/05,18:50,0.475,0.706,0.453,0.924,0.637,0.303,0.530,0.502,�k�k��,8.5,�L
2024/02/05,19:00,0.472,0.702,0.451,0.922,0.631,0.303,0.529,0.503,�k�k��,7.7,�L
2024/02/05,19:10,0.468,0.700,0.449,0.920,0.630,0.302,0.527,0.502,�k�k��,8.1,�L
2024/02/05,19:20,0.466,0.697,0.448,0.918,0.627,0.302,0.525,0.501,�k�k��,7.7,�L
2024/02/05,19:30,0.464,0.693,0.443,0.913,0.623,0.298,0.522,0.498,�k�k��,9.1,�L
2024/02/05,19:40,0.462,0.688,0.441,0.910,0.619,0.299,0.521,0.497,�k�k��,7.4,�L
2024/02/05,19:50,0.460,0.686,0.441,0.906,0.617,0.299,0.521,0.495,�k�k��,9.1,�L
2024/02/05,20:00,0.456,0.681,0.438,0.903,0.613,0.299,0.518,0.495,�k�k��,8.3,�L
2024/02/05,20:10,0.455,0.679,0.438,0.899,0.610,0.298,0.519,0.494,�k��,8.3,�L
2024/02/05,20:20,0.453,0.676,0.436,0.898,0.608,0.297,0.517,0.495,�k�k��,7.6,�L
2024/02/05,20:30,0.451,0.674,0.433,0.895,0.607,0.296,0.515,0.495,�k�k��,9.1,�L
2024/02/05,20:40,0.450,0.671,0.432,0.892,0.606,0.296,0.516,0.495,�k�k��,9.5,�L
2024/02/05,20:50,0.452,0.671,0.431,0.892,0.604,0.294,0.515,0.494,�k�k��,7.5,�L
2024/02/05,21:00,0.448,0.670,0.430,0.891,0.601,0.294,0.517,0.494,�k�k��,9.6,�L
2024/02/05,21:10,0.448,0.668,0.428,0.890,0.600,0.291,0.516,0.494,�k��,9.6,�L
2024/02/05,21:20,0.448,0.669,0.428,0.889,0.600,0.292,0.515,0.493,�k�k��,9.5,�L
2024/02/05,21:30,0.446,0.666,0.426,0.885,0.598,0.292,0.518,0.494,�k��,9.0,�L
2024/02/05,21:40,0.445,0.665,0.426,0.887,0.598,0.291,0.516,0.493,�k��,9.2,�L
2024/02/05,21:50,0.444,0.665,0.426,0.885,0.597,0.291,0.518,0.493,�k��,9.5,�L
2024/02/05,22:00,0.443,0.663,0.427,0.886,0.595,0.290,0.517,0.494,�k��,10.3,�L
2024/02/05,22:10,0.443,0.663,0.426,0.886,0.593,0.290,0.517,0.495,�k�k��,8.7,�L
2024/02/05,22:20,0.442,0.661,0.425,0.883,0.593,0.289,0.517,0.492,�k�k��,9.3,�L
2024/02/05,22:30,0.440,0.660,0.423,0.883,0.592,0.288,0.516,0.494,�k��,9.9,�L
2024/02/05,22:40,0.441,0.659,0.422,0.883,0.591,0.289,0.516,0.494,�k�k��,9.2,�L
2024/02/05,22:50,0.440,0.659,0.423,0.885,0.589,0.289,0.516,0.494,�k�k��,10.9,�L
2024/02/05,23:00,0.438,0.657,0.423,0.881,0.589,0.290,0.516,0.492,�k�k��,10.0,�L
2024/02/05,23:10,0.439,0.656,0.424,0.881,0.587,0.289,0.517,0.494,�k��,10.2,�L
2024/02/05,23:20,0.438,0.655,0.422,0.881,0.587,0.288,0.517,0.493,�k��,10.8,�L
2024/02/05,23:30,0.438,0.654,0.423,0.882,0.585,0.289,0.516,0.494,�k��,11.4,�L
2024/02/05,23:40,0.437,0.656,0.422,0.883,0.585,0.288,0.516,0.495,�k��,11.1,�L
2024/02/05,23:50,0.437,0.655,0.423,0.882,0.585,0.287,0.518,0.494,�k�k��,9.9,�L
